Simultaneous Nadir Overpasses (SNOs) Predictions

Prediction of SNOs between AQUA and METOP-B Satellite Orbit:

Table of predicted SNOs for the next 14.0 days since TLE Epoch: 6/29/2018
Index Date (AQUA) Time (AQUA) Lat,Lon (AQUA) SZA (AQUA ) Date (METOP-B) Time (METOP-B) Lat,Lon (METOP-B) SZA (METOP-B ) Distance(km) Time Diff (sec)
1 06/30/2018 17:03:55 -73.92, 98.17 129.18 06/30/2018 17:03:08 -73.94, 98.19 129.16 1.54 47
2 06/30/2018 17:53:23 73.97, -94.30 50.88 06/30/2018 17:53:47 73.99, -94.36 50.90 2.30 24
3 07/03/2018 12:38:10 -73.92, 164.60 128.96 07/03/2018 12:37:28 -73.94, 164.60 128.94 1.35 42
4 07/03/2018 13:27:38 73.98, -27.89 51.10 07/03/2018 13:28:07 73.99, -27.95 51.11 2.00 29
5 07/06/2018 08:12:25 -73.93,-128.98 128.69 07/06/2018 08:11:48 -73.94,-129.00 128.68 0.71 37
6 07/06/2018 09:01:52 74.00, 38.52 51.39 07/06/2018 09:02:26 73.98, 38.45 51.37 2.52 34
7 07/09/2018 03:46:39 -73.95, -62.57 128.36 07/09/2018 03:46:07 -73.93, -62.60 128.37 1.98 32
8 07/09/2018 04:36:07 74.02, 104.91 51.72 07/09/2018 04:36:45 74.03, 104.97 51.73 2.20 38
9 07/11/2018 23:20:54 -73.97, 3.82 127.97 07/11/2018 23:20:26 -73.98, 3.92 127.96 3.13 28
10 07/12/2018 00:10:21 73.99, 171.40 52.06 07/12/2018 00:11:05 74.02, 171.36 52.09 3.39 44




NCC Satellite Simultaneous Nadir Overpasses (SNOs) Prediction Service
